Time,TemperatureF,DewpointF,PressureIn,WindDirection,WindDirectionDegrees,WindSpeedMPH,WindSpeedGustMPH,Humidity,HourlyPrecipIn,Conditions,Clouds,dailyrainin,SoftwareType,DateUTC
2013-04-08 00:02:00,29.0,15.0,-100.00,NE,35,6.0,13.0,55,-99.99,,,-99.99,,2013-04-08 00:02:00,
2013-04-08 00:12:00,29.0,15.0,-100.00,NE,35,6.0,13.0,55,-99.99,,,-99.99,,2013-04-08 00:12:00,
2013-04-08 00:22:00,29.0,15.0,-100.00,NE,40,6.0,11.0,55,-99.99,,,-99.99,,2013-04-08 00:22:00,
2013-04-08 00:32:00,29.0,15.0,-100.00,NE,40,6.0,11.0,55,-99.99,,,-99.99,,2013-04-08 00:32:00,
2013-04-08 00:42:00,29.0,15.0,-100.00,NE,40,6.0,11.0,55,-99.99,,,-99.99,,2013-04-08 00:42:00,
2013-04-08 00:52:00,29.0,15.0,-100.00,North,0,6.0,12.0,57,-99.99,,,-99.99,,2013-04-08 00:52:00,
2013-04-08 01:02:00,29.0,15.0,-100.00,North,0,6.0,12.0,57,-99.99,,,-99.99,,2013-04-08 01:02:00,
2013-04-08 01:12:00,29.0,15.0,-100.00,North,0,6.0,12.0,57,-99.99,,,-99.99,,2013-04-08 01:12:00,
2013-04-08 01:22:00,29.0,15.0,-100.00,North,0,6.0,13.0,56,-99.99,,,-99.99,,2013-04-08 01:22:00,
2013-04-08 01:33:00,29.0,15.0,-100.00,North,0,6.0,13.0,56,-99.99,,,-99.99,,2013-04-08 01:33:00,
2013-04-08 01:42:00,29.0,15.0,-100.00,North,0,6.0,13.0,56,-99.99,,,-99.99,,2013-04-08 01:42:00,
2013-04-08 01:53:00,28.0,15.0,-100.00,North,5,7.0,11.0,57,-99.99,,,-99.99,,2013-04-08 01:53:00,
2013-04-08 02:02:00,28.0,15.0,-100.00,North,5,7.0,11.0,57,-99.99,,,-99.99,,2013-04-08 02:02:00,
2013-04-08 02:12:00,28.0,15.0,-100.00,North,5,7.0,11.0,57,-99.99,,,-99.99,,2013-04-08 02:12:00,
2013-04-08 02:22:00,27.0,14.0,-100.00,NNE,25,8.0,13.0,57,-99.99,,,-99.99,,2013-04-08 02:22:00,
2013-04-08 02:33:00,27.0,14.0,-100.00,NNE,25,8.0,13.0,57,-99.99,,,-99.99,,2013-04-08 02:33:00,
2013-04-08 02:45:00,27.0,14.0,-100.00,NNE,25,8.0,13.0,57,-99.99,,,-99.99,,2013-04-08 02:45:00,
2013-04-08 02:52:00,27.0,14.0,-100.00,NNE,30,6.0,12.0,58,-99.99,,,-99.99,,2013-04-08 02:52:00,
2013-04-08 03:05:00,27.0,14.0,-100.00,NNE,30,6.0,12.0,58,-99.99,,,-99.99,,2013-04-08 03:05:00,
2013-04-08 03:13:00,27.0,14.0,-100.00,NNE,30,6.0,12.0,58,-99.99,,,-99.99,,2013-04-08 03:13:00,
2013-04-08 03:23:00,27.0,15.0,-100.00,North,10,7.0,12.0,61,-99.99,,,-99.99,,2013-04-08 03:23:00,
2013-04-08 03:33:00,27.0,15.0,-100.00,North,10,7.0,12.0,61,-99.99,,,-99.99,,2013-04-08 03:33:00,
2013-04-08 03:53:00,26.0,18.0,-100.00,North,5,10.0,14.0,73,-99.99,,,-99.99,,2013-04-08 03:53:00,
2013-04-08 04:02:00,26.0,18.0,-100.00,North,5,10.0,14.0,73,-99.99,,,-99.99,,2013-04-08 04:02:00,
2013-04-08 04:12:00,26.0,18.0,-100.00,North,5,10.0,14.0,73,-99.99,,,-99.99,,2013-04-08 04:12:00,
2013-04-08 04:20:00,24.0,18.0,-100.00,North,0,10.0,17.0,75,-99.99,,,-99.99,,2013-04-08 04:20:00,
2013-04-08 04:22:00,25.0,18.0,-100.00,North,0,6.0,14.0,73,-99.99,,,-99.99,,2013-04-08 04:22:00,
2013-04-08 04:33:00,25.0,18.0,-100.00,North,0,6.0,14.0,73,-99.99,,,-99.99,,2013-04-08 04:33:00,
2013-04-08 04:43:00,25.0,18.0,-100.00,North,0,6.0,14.0,73,-99.99,,,-99.99,,2013-04-08 04:43:00,
2013-04-08 04:52:00,24.0,18.0,-100.00,North,0,10.0,17.0,75,-99.99,,,-99.99,,2013-04-08 04:52:00,
2013-04-08 05:02:00,24.0,18.0,-100.00,North,0,10.0,17.0,75,-99.99,,,-99.99,,2013-04-08 05:02:00,
2013-04-08 05:12:00,24.0,18.0,-100.00,North,0,10.0,17.0,75,-99.99,,,-99.99,,2013-04-08 05:12:00,
2013-04-08 05:32:00,24.0,18.0,-100.00,North,0,6.0,14.0,79,-99.99,,,-99.99,,2013-04-08 05:32:00,
2013-04-08 05:42:00,24.0,18.0,-100.00,North,0,6.0,14.0,79,-99.99,,,-99.99,,2013-04-08 05:42:00,
2013-04-08 05:51:00,24.0,19.0,-100.00,North,10,7.0,14.0,81,-99.99,,,-99.99,,2013-04-08 05:51:00,
2013-04-08 06:02:00,24.0,19.0,-100.00,North,10,7.0,14.0,81,-99.99,,,-99.99,,2013-04-08 06:02:00,
2013-04-08 06:12:00,24.0,19.0,-100.00,North,10,7.0,14.0,81,-99.99,,,-99.99,,2013-04-08 06:12:00,
2013-04-08 06:22:00,24.0,18.0,-100.00,North,0,9.0,14.0,76,-99.99,,,-99.99,,2013-04-08 06:22:00,
2013-04-08 06:32:00,24.0,18.0,-100.00,North,0,9.0,14.0,76,-99.99,,,-99.99,,2013-04-08 06:32:00,
2013-04-08 06:42:00,24.0,18.0,-100.00,North,0,9.0,14.0,76,-99.99,,,-99.99,,2013-04-08 06:42:00,
2013-04-08 06:52:00,24.0,17.0,-100.00,North,5,7.0,16.0,75,-99.99,,,-99.99,,2013-04-08 06:52:00,
2013-04-08 07:02:00,24.0,17.0,-100.00,North,5,7.0,16.0,75,-99.99,,,-99.99,,2013-04-08 07:02:00,
2013-04-08 07:12:00,24.0,17.0,-100.00,North,5,7.0,16.0,75,-99.99,,,-99.99,,2013-04-08 07:12:00,
2013-04-08 07:20:00,24.0,17.0,-100.00,North,350,9.0,17.0,76,-99.99,,,-99.99,,2013-04-08 07:20:00,
2013-04-08 07:22:00,24.0,17.0,-100.00,North,0,10.0,14.0,74,-99.99,,,-99.99,,2013-04-08 07:22:00,
2013-04-08 07:32:00,24.0,17.0,-100.00,North,0,10.0,14.0,74,-99.99,,,-99.99,,2013-04-08 07:32:00,
2013-04-08 07:42:00,24.0,17.0,-100.00,North,0,10.0,14.0,74,-99.99,,,-99.99,,2013-04-08 07:42:00,
2013-04-08 07:52:00,24.0,17.0,-100.00,North,350,9.0,17.0,76,-99.99,,,-99.99,,2013-04-08 07:52:00,
2013-04-08 08:02:00,24.0,17.0,-100.00,North,350,9.0,17.0,76,-99.99,,,-99.99,,2013-04-08 08:02:00,
2013-04-08 08:12:00,24.0,17.0,-100.00,North,350,9.0,17.0,76,-99.99,,,-99.99,,2013-04-08 08:12:00,
2013-04-08 08:32:00,23.0,17.0,-100.00,North,0,9.0,17.0,76,-99.99,,,-99.99,,2013-04-08 08:32:00,
2013-04-08 08:42:00,23.0,17.0,-100.00,North,0,9.0,17.0,76,-99.99,,,-99.99,,2013-04-08 08:42:00,
2013-04-08 08:52:00,22.0,16.0,-100.00,North,355,11.0,14.0,77,-99.99,,,-99.99,,2013-04-08 08:52:00,
2013-04-08 09:02:00,22.0,16.0,-100.00,North,355,11.0,14.0,77,-99.99,,,-99.99,,2013-04-08 09:02:00,
2013-04-08 09:12:00,22.0,16.0,-100.00,North,355,11.0,14.0,77,-99.99,,,-99.99,,2013-04-08 09:12:00,
2013-04-08 09:22:00,22.0,15.0,-100.00,North,10,9.0,16.0,74,-99.99,,,-99.99,,2013-04-08 09:22:00,
2013-04-08 09:33:00,22.0,15.0,-100.00,North,10,9.0,16.0,74,-99.99,,,-99.99,,2013-04-08 09:33:00,
2013-04-08 09:42:00,22.0,15.0,-100.00,North,10,9.0,16.0,74,-99.99,,,-99.99,,2013-04-08 09:42:00,
2013-04-08 09:52:00,22.0,15.0,-100.00,North,5,8.0,15.0,74,-99.99,,,-99.99,,2013-04-08 09:52:00,
2013-04-08 10:03:00,22.0,15.0,-100.00,North,5,8.0,15.0,74,-99.99,,,-99.99,,2013-04-08 10:03:00,
2013-04-08 10:13:00,22.0,15.0,-100.00,North,5,8.0,15.0,74,-99.99,,,-99.99,,2013-04-08 10:13:00,
2013-04-08 10:23:00,22.0,13.0,-100.00,North,5,14.0,17.0,70,-99.99,,,-99.99,,2013-04-08 10:23:00,
2013-04-08 10:32:00,22.0,13.0,-100.00,North,5,14.0,17.0,70,-99.99,,,-99.99,,2013-04-08 10:32:00,
2013-04-08 10:42:00,22.0,13.0,-100.00,North,5,14.0,17.0,70,-99.99,,,-99.99,,2013-04-08 10:42:00,
2013-04-08 10:52:00,21.0,13.0,-100.00,North,355,9.0,14.0,70,-99.99,,,-99.99,,2013-04-08 10:52:00,
2013-04-08 11:02:00,21.0,13.0,-100.00,North,355,9.0,14.0,70,-99.99,,,-99.99,,2013-04-08 11:02:00,
2013-04-08 11:12:00,21.0,13.0,-100.00,North,355,9.0,14.0,70,-99.99,,,-99.99,,2013-04-08 11:12:00,
2013-04-08 11:22:00,20.0,12.0,-100.00,North,0,9.0,14.0,70,-99.99,,,-99.99,,2013-04-08 11:22:00,
2013-04-08 11:32:00,20.0,12.0,-100.00,North,0,9.0,14.0,70,-99.99,,,-99.99,,2013-04-08 11:32:00,
2013-04-08 11:42:00,20.0,12.0,-100.00,North,0,9.0,14.0,70,-99.99,,,-99.99,,2013-04-08 11:42:00,
2013-04-08 11:52:00,21.0,12.0,-100.00,NNE,15,10.0,17.0,69,-99.99,,,-99.99,,2013-04-08 11:52:00,
2013-04-08 12:02:00,21.0,12.0,-100.00,NNE,15,10.0,17.0,69,-99.99,,,-99.99,,2013-04-08 12:02:00,
2013-04-08 12:12:00,21.0,12.0,-100.00,NNE,15,10.0,17.0,69,-99.99,,,-99.99,,2013-04-08 12:12:00,
2013-04-08 12:22:00,20.0,12.0,-100.00,North,0,11.0,14.0,70,-99.99,,,-99.99,,2013-04-08 12:22:00,
2013-04-08 12:32:00,20.0,12.0,-100.00,North,0,11.0,14.0,70,-99.99,,,-99.99,,2013-04-08 12:32:00,
2013-04-08 12:42:00,20.0,12.0,-100.00,North,0,11.0,14.0,70,-99.99,,,-99.99,,2013-04-08 12:42:00,
2013-04-08 12:52:00,20.0,13.0,-100.00,North,5,12.0,17.0,71,-99.99,,,-99.99,,2013-04-08 12:52:00,
2013-04-08 13:02:00,20.0,13.0,-100.00,North,5,12.0,17.0,71,-99.99,,,-99.99,,2013-04-08 13:02:00,
2013-04-08 13:12:00,20.0,13.0,-100.00,North,5,12.0,17.0,71,-99.99,,,-99.99,,2013-04-08 13:12:00,
2013-04-08 13:22:00,20.0,12.0,-100.00,North,10,10.0,17.0,71,-99.99,,,-99.99,,2013-04-08 13:22:00,
2013-04-08 13:32:00,20.0,12.0,-100.00,North,10,10.0,17.0,71,-99.99,,,-99.99,,2013-04-08 13:32:00,
2013-04-08 13:42:00,20.0,12.0,-100.00,North,10,10.0,17.0,71,-99.99,,,-99.99,,2013-04-08 13:42:00,
2013-04-08 13:52:00,20.0,12.0,-100.00,NNE,20,10.0,19.0,71,-99.99,,,-99.99,,2013-04-08 13:52:00,
2013-04-08 14:02:00,20.0,12.0,-100.00,NNE,20,10.0,19.0,71,-99.99,,,-99.99,,2013-04-08 14:02:00,
2013-04-08 14:12:00,20.0,12.0,-100.00,NNE,20,10.0,19.0,71,-99.99,,,-99.99,,2013-04-08 14:12:00,
2013-04-08 14:22:00,20.0,12.0,-100.00,North,5,9.0,19.0,73,-99.99,,,-99.99,,2013-04-08 14:22:00,
2013-04-08 14:32:00,20.0,12.0,-100.00,North,5,9.0,19.0,73,-99.99,,,-99.99,,2013-04-08 14:32:00,
2013-04-08 14:52:00,19.0,12.0,-100.00,NNE,15,10.0,17.0,73,-99.99,,,-99.99,,2013-04-08 14:52:00,
2013-04-08 15:02:00,19.0,12.0,-100.00,NNE,15,10.0,17.0,73,-99.99,,,-99.99,,2013-04-08 15:02:00,
2013-04-08 15:12:00,19.0,12.0,-100.00,NNE,15,10.0,17.0,73,-99.99,,,-99.99,,2013-04-08 15:12:00,
2013-04-08 15:22:00,19.0,13.0,-100.00,North,10,10.0,17.0,74,-99.99,,,-99.99,,2013-04-08 15:22:00,
2013-04-08 15:33:00,19.0,13.0,-100.00,North,10,10.0,17.0,74,-99.99,,,-99.99,,2013-04-08 15:33:00,
2013-04-08 15:42:00,19.0,13.0,-100.00,North,10,10.0,17.0,74,-99.99,,,-99.99,,2013-04-08 15:42:00,
2013-04-08 15:52:00,19.0,13.0,-100.00,North,10,11.0,17.0,74,-99.99,,,-99.99,,2013-04-08 15:52:00,
2013-04-08 16:03:00,19.0,13.0,-100.00,North,10,11.0,17.0,74,-99.99,,,-99.99,,2013-04-08 16:03:00,
2013-04-08 16:12:00,19.0,13.0,-100.00,North,10,11.0,17.0,74,-99.99,,,-99.99,,2013-04-08 16:12:00,
2013-04-08 16:22:00,20.0,12.0,-100.00,North,5,12.0,17.0,72,-99.99,,,-99.99,,2013-04-08 16:22:00,
2013-04-08 16:32:00,20.0,12.0,-100.00,North,5,12.0,17.0,72,-99.99,,,-99.99,,2013-04-08 16:32:00,
2013-04-08 16:42:00,20.0,12.0,-100.00,North,5,12.0,17.0,72,-99.99,,,-99.99,,2013-04-08 16:42:00,
2013-04-08 16:52:00,20.0,11.0,-100.00,North,0,11.0,17.0,69,-99.99,,,-99.99,,2013-04-08 16:52:00,
2013-04-08 17:02:00,20.0,11.0,-100.00,North,0,11.0,17.0,69,-99.99,,,-99.99,,2013-04-08 17:02:00,
2013-04-08 17:12:00,20.0,11.0,-100.00,North,0,11.0,17.0,69,-99.99,,,-99.99,,2013-04-08 17:12:00,
2013-04-08 17:22:00,20.0,11.0,-100.00,NNE,15,10.0,16.0,66,-99.99,,,-99.99,,2013-04-08 17:22:00,
2013-04-08 17:32:00,20.0,11.0,-100.00,NNE,15,10.0,16.0,66,-99.99,,,-99.99,,2013-04-08 17:32:00,
2013-04-08 17:43:00,20.0,11.0,-100.00,NNE,15,10.0,16.0,66,-99.99,,,-99.99,,2013-04-08 17:43:00,
2013-04-08 17:52:00,21.0,11.0,-100.00,NNE,20,11.0,19.0,64,-99.99,,,-99.99,,2013-04-08 17:52:00,
2013-04-08 18:02:00,21.0,11.0,-100.00,NNE,20,11.0,19.0,64,-99.99,,,-99.99,,2013-04-08 18:02:00,
2013-04-08 18:12:00,21.0,11.0,-100.00,NNE,20,11.0,19.0,64,-99.99,,,-99.99,,2013-04-08 18:12:00,
2013-04-08 18:22:00,22.0,11.0,-100.00,North,10,11.0,17.0,61,-99.99,,,-99.99,,2013-04-08 18:22:00,
2013-04-08 18:32:00,22.0,11.0,-100.00,North,10,11.0,17.0,61,-99.99,,,-99.99,,2013-04-08 18:32:00,
2013-04-08 18:42:00,22.0,11.0,-100.00,North,10,11.0,17.0,61,-99.99,,,-99.99,,2013-04-08 18:42:00,
2013-04-08 18:52:00,23.0,10.0,-100.00,North,0,9.0,19.0,56,-99.99,,,-99.99,,2013-04-08 18:52:00,
2013-04-08 19:02:00,23.0,10.0,-100.00,North,0,9.0,19.0,56,-99.99,,,-99.99,,2013-04-08 19:02:00,
2013-04-08 19:12:00,23.0,10.0,-100.00,North,0,9.0,19.0,56,-99.99,,,-99.99,,2013-04-08 19:12:00,
2013-04-08 19:22:00,24.0,11.0,-100.00,North,10,12.0,16.0,57,-99.99,,,-99.99,,2013-04-08 19:22:00,
2013-04-08 19:33:00,24.0,11.0,-100.00,North,10,12.0,16.0,57,-99.99,,,-99.99,,2013-04-08 19:33:00,
2013-04-08 19:42:00,24.0,11.0,-100.00,North,10,12.0,16.0,57,-99.99,,,-99.99,,2013-04-08 19:42:00,
2013-04-08 19:52:00,25.0,11.0,-100.00,North,10,12.0,17.0,56,-99.99,,,-99.99,,2013-04-08 19:52:00,
2013-04-08 20:02:00,25.0,11.0,-100.00,North,10,12.0,17.0,56,-99.99,,,-99.99,,2013-04-08 20:02:00,
2013-04-08 20:12:00,25.0,11.0,-100.00,North,10,12.0,17.0,56,-99.99,,,-99.99,,2013-04-08 20:12:00,
2013-04-08 20:22:00,26.0,11.0,-100.00,North,10,12.0,16.0,52,-99.99,,,-99.99,,2013-04-08 20:22:00,
2013-04-08 20:33:00,26.0,11.0,-100.00,North,10,12.0,16.0,52,-99.99,,,-99.99,,2013-04-08 20:33:00,
2013-04-08 20:42:00,26.0,11.0,-100.00,North,10,12.0,16.0,52,-99.99,,,-99.99,,2013-04-08 20:42:00,
2013-04-08 20:52:00,27.0,12.0,-100.00,NE,35,9.0,14.0,53,-99.99,,,-99.99,,2013-04-08 20:52:00,
2013-04-08 21:02:00,27.0,12.0,-100.00,NE,35,9.0,14.0,53,-99.99,,,-99.99,,2013-04-08 21:02:00,
2013-04-08 21:12:00,27.0,12.0,-100.00,NE,35,9.0,14.0,53,-99.99,,,-99.99,,2013-04-08 21:12:00,
2013-04-08 21:22:00,27.0,11.0,-100.00,North,10,8.0,14.0,51,-99.99,,,-99.99,,2013-04-08 21:22:00,
2013-04-08 21:32:00,27.0,11.0,-100.00,North,10,8.0,14.0,51,-99.99,,,-99.99,,2013-04-08 21:32:00,
2013-04-08 21:43:00,27.0,11.0,-100.00,North,10,8.0,14.0,51,-99.99,,,-99.99,,2013-04-08 21:43:00,
2013-04-08 21:52:00,28.0,12.0,-100.00,North,355,9.0,12.0,50,-99.99,,,-99.99,,2013-04-08 21:52:00,
2013-04-08 22:02:00,28.0,12.0,-100.00,North,355,9.0,12.0,50,-99.99,,,-99.99,,2013-04-08 22:02:00,
2013-04-08 22:12:00,28.0,12.0,-100.00,North,355,9.0,12.0,50,-99.99,,,-99.99,,2013-04-08 22:12:00,
2013-04-08 22:20:00,27.0,11.0,-100.00,North,5,12.0,18.0,49,-99.99,,,-99.99,,2013-04-08 22:20:00,
2013-04-08 22:22:00,26.0,11.0,-100.00,NNW,345,11.0,17.0,51,-99.99,,,-99.99,,2013-04-08 22:22:00,
2013-04-08 22:32:00,26.0,11.0,-100.00,NNW,345,11.0,17.0,51,-99.99,,,-99.99,,2013-04-08 22:32:00,
2013-04-08 22:42:00,26.0,11.0,-100.00,NNW,345,11.0,17.0,51,-99.99,,,-99.99,,2013-04-08 22:42:00,
2013-04-08 22:52:00,27.0,11.0,-100.00,North,5,12.0,18.0,49,-99.99,,,-99.99,,2013-04-08 22:52:00,
2013-04-08 23:02:00,27.0,11.0,-100.00,North,5,12.0,18.0,49,-99.99,,,-99.99,,2013-04-08 23:02:00,
2013-04-08 23:12:00,27.0,11.0,-100.00,North,5,12.0,18.0,49,-99.99,,,-99.99,,2013-04-08 23:12:00,
2013-04-08 23:32:00,27.0,10.0,-100.00,North,0,13.0,18.0,48,-99.99,,,-99.99,,2013-04-08 23:32:00,
2013-04-08 23:42:00,27.0,10.0,-100.00,North,0,13.0,18.0,48,-99.99,,,-99.99,,2013-04-08 23:42:00,
2013-04-08 23:52:00,27.0,9.0,-100.00,NNW,335,7.0,17.0,46,-99.99,,,-99.99,,2013-04-08 23:52:00,